World > North America > United States > Tennessee   Town of Mountain City, TN

Mountain City, Tennessee Regional Weather

Lat: 36.47N, Lon: 81.81W
Wx Zone: TNZ018Web Search

Helpful Tip: Type the letters wx in the search engine next time you need to find us.

Feedback
Mountain City Weather Map
UTC Time: 9/21/2020, 09:05
Your Time:

Mountain City, TN Regional Weather

Expires:202009211000;;138244
ASUS44 KMEG 210900
RWRTN 
TENNESSEE HOURLY STATE WEATHER ROUNDUP
NATIONAL WEATHER SERVICE MEMPHIS TN
400 AM CDT MON SEP 21 2020


TNZ017-018-042-046-047-211000-
NORTHEAST TENNESSEE
  
CITY           SKY/WX    TMP DP  RH WIND       PRES   REMARKS
TRI CITIES     CLEAR     44  40  85 N3        30.43R                  
ELIZABETHTON   CLEAR     54  39  58 E8        30.42S                  
GREENEVILLE    CLEAR     48  41  76 CALM      30.40S                  
$$


SKY/WX - Weather  TMP - Temperature  DP - Dew Point  RH - Relative Humidity
WIND - Wind Direction/Speed PRES - Barometric Pressure VSB - Visibility
WCI - Wind Chill Index E13G22 Wind - East Wind 13 mph/Gusts of 22 mph